Find Starlink 30085

NORAD ID: 56709 Int'l Des: 2023-067 Owner: SPXS Country: US Constellation: starlink operational
LEOCIRCULAR

实时位置

正在加载3D地球...

关于 Starlink 30085

正在加载描述...

即将过境

Passes for default location (London). Set your location on the main map for personalized predictions.

高度历史

Loading altitude history...

两行轨道根数

1 56709U 23067X 26106.54999542 .00000542 00000-0 29218-4 0 9994
2 56709 43.0027 56.9506 0001073 272.8217 87.2512 15.27577291161230
Epoch: Apr 16, 2026 • Age: 15 hours

当前状态

高度 483.5 km
速度 7.63 km/s
星下点 25.19°N, 61.02°W
发射日期 May 19, 2023
运行时间 2.9 years
类型 internet

技术详情

分类 Payload
质量 730.00 kg
干质量 700.00 kg
总质量 730.00 kg
长度 0.30 m
直径 4.10 m
跨度 29.00 m
形状 Box + pan
制造商 SPXS
平台类型 Starlink V2M
阶段状态 In Orbit
所有者/国家 SPXS/US

Most Searched